Regional Weather Roundup
Issued by NWS

Home | Current Version | Previous Version | Text Only | Print | Product List | Glossary Off
Versions: 1 2 3 4 5 6 7 8 9 10 11 12 13 14 15 16 17 18 19 20 21 22 23 24 25 26 27 28 29 30 31 32 33 34 35 36 37 38 39 40 41 42 43 44 45 46 47 48 49 50

000
ASUS43 KFSD 202110
RWRSD

WEATHER ROUNDUP FOR SOUTH DAKOTA
NATIONAL WEATHER SERVICE SIOUX FALLS SD
400 PM CDT SUN MAY 20 2018

NOTE: "FAIR" INDICATES FEW OR NO CLOUDS BELOW 12,000 FEET WITH NO
SIGNIFICANT WEATHER AND/OR OBSTRUCTIONS TO VISIBILITY.


SDZ001>005-009-010-012>017-202200-
NORTHWEST AND NORTH CENTRAL SOUTH DAKOTA

CITY           SKY/WX    TMP DP  RH WIND       PRES   REMARKS
BUFFALO          N/A     65  32  29 SE21      30.08F
FAITH            N/A     61  39  44 SE7       30.17F
MOBRIDGE       PTSUNNY   70  38  31 SE18G25   30.16F
$$

SDZ012>016-024>037-041>051-057-063-072>074-202200-
SOUTHWEST AND SOUTH CENTRAL SOUTH DAKOTA

CITY           SKY/WX    TMP DP  RH WIND       PRES   REMARKS
RAPID CTY ARPT CLOUDY    58  40  51 SE9       30.16F
PIERRE         MOSUNNY   66  37  34 E9        30.14F
CUSTER         CLOUDY    52  32  46 VRB7      30.17F
ELLSWORTH AFB  CLOUDY    58  38  47 S9        30.16F
PHILIP         MOSUNNY   64  39  39 E8        30.15F
PINE RIDGE     PTSUNNY   61  33  35 CALM      30.17F
SPEARFISH      FAIR      59  41  51 E15G21    30.13F
WINNER         CLOUDY    61  36  39 NE9       30.15F
$$

SDZ004>011-016>023-039-040-202200-
NORTHEAST SOUTH DAKOTA

CITY           SKY/WX    TMP DP  RH WIND       PRES   REMARKS
ABERDEEN       MOSUNNY   71  27  19 E12       30.17F
WATERTOWN      PTSUNNY   65  30  27 NE14      30.15F
BROOKINGS      CLOUDY    65  28  24 E12       30.14F
SISSETON         N/A     72  27  18 E9        30.16F
$$

SDZ017-020-022-023-036>040-048>070-202200-
SOUTHEAST SOUTH DAKOTA

CITY           SKY/WX    TMP DP  RH WIND       PRES   REMARKS
SIOUX FALLS    CLOUDY    58  47  66 E9        30.14F
HURON          CLOUDY    62  34  35 E7        30.15F
CHAMBERLAIN    CLOUDY    64  37  36 E8G16     30.15F
MITCHELL       CLOUDY    60  40  47 NE8       30.15F
YANKTON        CLOUDY    55  48  77 NE6       30.15F
$$

ABBREVIATIONS USED IN REMARKS
   TC - TEMPERATURE IN CELSIUS
  WCI - WIND CHILL INDEX
   HX - HEAT INDEX
  VSB - VISIBILITY





USA.gov is the U.S. government's official web portal to all federal, state and local government web resources and services.